Regional Weather Roundup
Issued by NWS

Home | Current Version | Previous Version | Graphics & Text | Print | Product List | Glossary On
Versions: 1 2 3 4 5 6 7 8 9 10 11 12 13 14 15 16 17 18 19 20 21 22 23 24 25 26 27
000
ASUS45 KCYS 151410
RWRWY

WYOMING REGIONAL WEATHER ROUNDUP
NATIONAL WEATHER SERVICE CHEYENNE WY
800 AM MDT TUE APR 15 2014

NOTE:  "FAIR" INDICATES FEW OR NO CLOUDS BELOW 12,000 FEET
WITH NO SIGNIFICANT WEATHER AND/OR OBSTRUCTIONS TO VISIBILITY.

WYZ001-151500-
YELLOWSTONE NATIONAL PARK

CITY           SKY/WX    TMP DP  RH WIND       PRES   REMARKS
LK YELLOWSTONE   N/A     22  12  65 CALM      29.97F
W YELLOWSTONE  NOT AVBL

$$
WYZ002>013-054>058-071-098>099-151500-
NORTHERN WYOMING

CITY           SKY/WX    TMP DP  RH WIND       PRES   REMARKS
JACKSON        MOSUNNY   25  18  74 MISG      29.99F
CODY           PTSUNNY   45  12  26 W16G24    29.82F
GREYBULL       CLOUDY    31  26  82 E3        29.85F
WORLAND        CLOUDY    32  27  81 CALM      29.84F
SHERIDAN       CLOUDY    36  25  64 CALM      29.77R
BUFFALO        CLOUDY    42  17  36 SW5       29.79S
GILLETTE       CLOUDY    42  20  41 SW18      29.77F
HULETT         FAIR      37  21  52 SW8       29.78  WCI  31
NEWCASTLE      FAIR      32  23  69 CALM      29.84

$$
WYZ014>020-022>026-101>103-151500-
CENTRAL WYOMING

CITY           SKY/WX    TMP DP  RH WIND       PRES   REMARKS
BIG PINEY      MOSUNNY   23  19  85 E3        30.02F
PINEDALE       SUNNY     21  14  73 NW7       30.03F WCI  13
DUBOIS         FAIR      34   5  29 N17G25    29.90F WCI  23
LANDER         PTSUNNY   34  20  56 W6        29.89R WCI  29
RIVERTON       CLOUDY    37  16  42 SW8       29.89F WCI  31
CASPER         CLOUDY    38  18  44 SW20G25   29.88F WCI  28
DOUGLAS        PTSUNNY   31  23  72 W3        29.87F

$$
WYZ021-027>030-104>119-151500-
SOUTHERN WYOMING

CITY           SKY/WX    TMP DP  RH WIND       PRES   REMARKS
EVANSTON       CLOUDY    33  12  41 SW16      30.05F WCI  23
FORT BRIDGER   FAIR      37  11  34 W6        30.06F WCI  33
ROCK SPRINGS   CLOUDY    38   3  23 SW8       30.02F WCI  32
DIXON          FAIR      29  20  68 CALM      30.12F
RAWLINS        CLOUDY    34  15  46 S9G17     30.00F WCI  27
SARATOGA       FAIR      32  18  55 S8        30.03F WCI  25
LARAMIE        MOSUNNY   32  16  51 SW31G39   29.94F WCI  17
CHEYENNE       MOSUNNY   39  17  41 W23       29.92F WCI  28
TORRINGTON     SUNNY     29  23  78 E5        29.88F WCI  24
PINE BLUFFS    FAIR      36  23  60 S8        29.94F WCI  29

$$



USA.gov is the U.S. government's official web portal to all federal, state and local government web resources and services.